Regional Weather Roundup
Issued by NWS

Home | Current Version | Previous Version | Text Only | Print | Product List | Glossary On
Versions: 1 2 3 4 5 6 7 8 9 10 11 12 13 14 15 16 17 18 19 20 21 22 23 24 25 26 27 28 29 30 31 32 33 34 35 36 37 38 39 40 41 42 43 44 45 46 47 48 49 50
000
ASUS43 KMKX 290600
RWRWI

WISCONSIN REGIONAL WEATHER ROUNDUP
NATIONAL WEATHER SERVICE MILWAUKEE/SULLIVAN WI
100 AM CDT WED JUL 29 2015

NOTE: "FAIR" INDICATES FEW OR NO CLOUDS BELOW 12,000 FEET WITH NO
SIGNIFICANT WEATHER AND/OR OBSTRUCTIONS TO VISIBILITY.

WIZ001-002-006>008-014>016-023>028-290700-
NORTHWEST WISCONSIN

CITY           SKY/WX    TMP DP  RH WIND       PRES   REMARKS
SUPERIOR ARPT  CLEAR     69  58  69 W12       29.79F
ASHLAND        CLEAR     69  64  84 SW9       29.82R
6HR MIN TEMP:  69; 6HR MAX TEMP:  81; 6HR PCP:  0.03;

HAYWARD        PTCLDY    71  60  68 SW8       29.87F
6HR MIN TEMP:  71; 6HR MAX TEMP:  81;

SIREN          PTCLDY    68  58  70 W12       29.89S
CUMBERLAND     MOCLDY    63  59  88 SW5       29.91S
RICE LAKE      MOCLDY    68  59  74 SW3       29.91F
CHETEK         MOCLDY    71  60  69 CALM      29.90F
LADYSMITH      CLOUDY    74  59  57 W13G21    29.91R
EAU CLAIRE     NOT AVBL
MENOMONIE      CLOUDY    72  61  67 W3        29.92S
NEW RICHMOND   CLOUDY    66  59  77 SW6       29.93R
OSCEOLA        MOCLDY    67  61  80 W7        29.94R
$$

WIZ003>005-009-010-017-018-290700-
NORTH CENTRAL WISCONSIN

CITY           SKY/WX    TMP DP  RH WIND       PRES   REMARKS
MANITOWISH WTR RAIN      74  72  95 SW8       29.86F
ARBOR VITAE    CLOUDY    77  73  88 SW10      29.87F
WOODRUFF       CLOUDY    77  73  88 SW10      29.87F
RHINELANDER    LGT RAIN  74  70  87 SW9       29.89F
6HR MIN TEMP:  73; 6HR MAX TEMP:  81; 6HR PCP: TRACE;

EAGLE RIVER    CLOUDY    72  69  90 S5        29.88F
LAND O LAKES   CLOUDY    73  68  83 S10       29.88F
PHILLIPS       CLOUDY    75  71  86 SW12G21   29.87S
TOMAHAWK       CLOUDY    73  69  88 CALM      29.89F
MEDFORD        CLOUDY    74  72  93 SW8       29.90F
MERRILL        NOT AVBL
$$

WIZ029-030-035-036-043>047-290700-
CENTRAL WISCONSIN

CITY           SKY/WX    TMP DP  RH WIND       PRES   REMARKS
WAUSAU         CLOUDY    75  70  84 SW9       29.88F
6HR MIN TEMP:  75; 6HR MAX TEMP:  83;

MOSINEE        CLOUDY    72  70  94 SW7       29.92F
MARSHFIELD     CLOUDY    75  69  81 SW8       29.90F
6HR MIN TEMP:  75; 6HR MAX TEMP:  81;

STEVENS POINT  CLOUDY    72  69  90 S5        29.91F
WAUPACA        CLOUDY    74  73  94 CALM      29.91F
WAUTOMA        NOT AVBL
WISC RAPIDS    CLOUDY    75  69  81 SW7       29.91F
6HR MIN TEMP:  74; 6HR MAX TEMP:  83;

CAMP DOUGLAS   NOT AVBL
$$

WIZ011>013-019>022-031-037>040-048>050-290700-
NORTHEAST WISCONSIN

CITY           SKY/WX    TMP DP  RH WIND       PRES   REMARKS
ANTIGO         CLOUDY    71  69  94 S6        29.92F
SHAWANO        MOCLDY    74  68  83 CALM      29.90F
OCONTO         MOCLDY    73  71  92 S3        29.89F
STURGEON BAY   MOCLDY    72  64  78 S7        29.92F
6HR MIN TEMP:  72; 6HR MAX TEMP:  79;

GREEN BAY      PTCLDY    72  68  87 S7        29.89F
6HR MIN TEMP:  72; 6HR MAX TEMP:  82;

MANITOWOC      NOT AVBL
APPLETON       MOCLDY    73  70  88 SW9       29.91F
CLINTONVILLE   MOCLDY    72  68  88 SW5       29.90F
OSHKOSH        MOCLDY    75  71  87 S6        29.90F
6HR MIN TEMP:  71; 6HR MAX TEMP:  81;

$$

WIZ032>034-041-042-053>061-290700-
SOUTHWEST WISCONSIN

CITY           SKY/WX    TMP DP  RH WIND       PRES   REMARKS
LA CROSSE      CLOUDY    77  71  82 W8        29.92R
6HR MIN TEMP:  76; 6HR MAX TEMP:  84;

SPARTA         CLOUDY    74  68  80 S3        29.93S
VIROQUA        CLOUDY    73  73 100 SW5       29.95F
BOSCOBEL       CLOUDY    74  71  91 SW3       29.93F
6HR MIN TEMP:  74; 6HR MAX TEMP:  80;

PRAIRIE DU CHI CLOUDY    75  70  83 CALM      29.93F
PLATTEVILLE    CLOUDY    73  73  98 W3        29.95F
$$

WIZ056-057-062-063-064-067-068-290700-
SOUTH CENTRAL WISCONSIN

CITY           SKY/WX    TMP DP  RH WIND       PRES   REMARKS
REEDSBURG      CLOUDY    75  70  86 CALM      29.93S
BARABOO/DELLS  CLOUDY    74  68  80 CALM      29.93F
LONE ROCK      NOT AVBL
MINERAL POINT  CLOUDY    75  73  94 CALM      29.96F FOG
MADISON        CLOUDY    78  72  81 S3        29.91F HX  80
6HR MIN TEMP:  78; 6HR MAX TEMP:  84;

MIDDLETON      CLOUDY    77  74  92 CALM      29.93F
WATERTOWN      CLOUDY    73  73 100 CALM      29.92F
MONROE         CLOUDY    75  72  88 SW7       29.94F
JANESVILLE     CLOUDY    77  73  88 CALM      29.93F
$$

WIZ051-052-058>065-066-070>072-290700-
SOUTHEAST WISCONSIN

CITY           SKY/WX    TMP DP  RH WIND       PRES   REMARKS
MILWAUKEE      MOCLDY    76  68  76 CALM      29.92F
6HR MIN TEMP:  75; 6HR MAX TEMP:  83;

WAUKESHA       CLOUDY    72  68  88 CALM      29.95F
MILWAUKEE/TIMM MOCLDY    73  66  78 CALM      29.94F
RACINE         CLOUDY    75  70  84 CALM      29.94F
6HR MIN TEMP:  74; 6HR MAX TEMP:  81;

BURLINGTON     CLOUDY    70  69  96 CALM      29.94F FOG
KENOSHA        CLOUDY    76  70  82 S3        29.93F
6HR MIN TEMP:  72; 6HR MAX TEMP:  83;

FOND DU LAC    MOCLDY    75  72  90 SW6       29.91F
6HR MIN TEMP:  74; 6HR MAX TEMP:  82;

SHEBOYGAN      MOCLDY    68  66  93 S3        29.92F
6HR MIN TEMP:  68; 6HR MAX TEMP:  79;

WEST BEND      MOCLDY    70  66  88 CALM      29.94F
JUNEAU         CLOUDY    73  71  93 SW5       29.94F
$$

LSZ147-162-290700-
LAKE SUPERIOR

STATION/POSITION TIME  TEMP    WIND        PRES    WAVE
                       AIR SEA DIR/SP/G            HT/PER
                 (UTC) (F)     (DEG/KT/KT) (MB)    (FT/S)
W MID LAKE BUOY  0450   68 62  170/ 12/ 14 1006.9R   1/ 2
DEVILS ISLAND    0500   76     240/ 20/ 24 1007.4R
PORT WING        0500   76     230/ 10/ 16 1009.1R
SAXON HARBOR     0540   79                 1008.8R
$$

LMZ867-665-643>646-290700-
LAKE MICHIGAN

STATION/POSITION TIME  TEMP    WIND        PRES    WAVE
                       AIR SEA DIR/SP/G            HT/PER
                 (UTC) (F)     (DEG/KT/KT) (MB)    (FT/S)
CHAMBERS ISLAND  0500   76     160/  6/ 12 1012.2R
S GREEN BAY BUOY 0500   76 75  190/ 14/ 16 1014.2
N MID LAKE BUOY  0450   73 71  180/ 10/ 12 1012.3F   1/ 3
NORTHPORT PIER   0500   74     170/  3/  8 1012.5R
SISTER BAY       0514   74     180/ 13/ 17   N/A
KEWAUNEE LAKESHO 0500   66     190/  7/  8 1012.6R
SHEBOYGAN LAKESH 0500   73     210/  8/  9 1014.1R
PORT WASHINGTON  0500   72     170/  1/  3 1014.6
ATWATER BUOY     0500   70     180/  6/  6 1015.4R
MILWAUKEE LAKESH 0500   72     180/  2/  3   N/A
KENOSHA   LAKESH 0500   76     200/  4/  6 1013.9R
$$

TC  - TEMPERATURE IN CELSIUS
VSB - VISIBILITY IN STATUTE MILES
WCI - WIND CHILL INDEX
HX  - HEAT INDEX



USA.gov is the U.S. government's official web portal to all federal, state and local government web resources and services.